DH5RAE-11 Weather Reports


Display with metric or nautical units.
time (UTC)temp
F
wind
direction
speed
MPH
gust
MPH
rain 1hr
in
rain 24hr
in
rain mn
in
humidity
%
barometer
mb
20260903064547 58 22 0.0 0.0 0.00 0.00 0.00 90 1025.0
20260903063220 54 45 0.0 0.0 0.00 0.00 0.00 90 1025.0
20260903062220 54 45 0.0 0.0 0.00 0.00 0.00 89 1025.1
20260903061220 54 22 0.0 0.0 0.00 0.00 0.00 89 1024.9
20260903060219 53 22 0.0 0.0 0.00 0.00 0.00 89 1024.9
20260903055219 53 22 0.0 0.0 0.00 0.00 0.00 88 1025.0
20260903054000 53 22 0.0 0.0 0.00 0.00 0.00 88 1024.8
20260903052849 53 22 0.0 0.0 0.00 0.00 0.00 88 1024.6
20260903051739 53 22 0.0 0.0 0.00 0.00 0.00 88 1024.6
20260903050738 54 22 0.0 0.0 0.00 0.00 0.00 88 1024.7
20260903045628 54 22 0.0 0.0 0.00 0.00 0.00 88 1024.7
20260903044411 54 0 0.0 0.0 0.00 0.00 0.00 88 1024.7
20260903043043 55 45 0.0 0.0 0.00 0.00 0.00 88 1024.6
20260903041932 55 45 0.0 0.0 0.00 0.00 0.00 88 1024.5
20260903040606 55 45 0.0 0.0 0.00 0.00 0.00 88 1024.5
20260903034803 56 45 0.0 0.0 0.00 0.00 0.00 88 1024.3
20260903033803 56 45 0.0 0.0 0.00 0.00 0.00 88 1024.3
20260903032802 56 45 0.0 0.0 0.00 0.00 0.00 88 1024.3
20260903031802 56 45 0.0 0.0 0.00 0.00 0.00 88 1024.3
20260903030001 56 45 0.0 0.0 0.00 0.00 0.00 88 1024.2
20260903025001 56 22 0.0 0.0 0.00 0.00 0.00 88 1024.2
20260903024001 56 22 0.0 0.0 0.00 0.00 0.00 88 1024.2
20260903023000 56 45 0.0 0.0 0.00 0.00 0.00 88 1024.2
20260903022000 56 45 0.0 0.0 0.00 0.00 0.00 88 1024.1
20260903021000 56 0 0.0 0.0 0.00 0.00 0.00 88 1024.1
20260903020000 56 22 0.0 0.0 0.00 0.00 0.00 87 1024.1
20260903014959 56 45 0.0 0.0 0.00 0.00 0.00 87 1024.2
20260903013959 56 22 0.0 0.0 0.00 0.00 0.00 87 1024.1
20260903012959 56 22 0.0 0.0 0.00 0.00 0.00 87 1024.1
20260903011959 56 45 0.0 0.0 0.00 0.00 0.00 87 1024.1
20260903010959 57 45 0.0 0.0 0.00 0.00 0.00 87 1024.1
20260903005958 57 45 0.0 0.0 0.00 0.00 0.00 87 1024.1
20260903004157 57 45 0.0 0.0 0.00 0.00 0.00 87 1024.2
20260903003157 57 45 0.0 0.0 0.00 0.00 0.00 87 1024.1
20260903002156 57 45 0.0 0.0 0.00 0.00 0.00 87 1024.0
20260903001156 57 0 0.0 0.0 0.00 0.00 0.00 87 1024.1
20260903000156 57 45 0.0 0.0 0.00 0.00 0.00 87 1024.2
20260902235156 57 45 0.0 0.0 0.00 0.00 0.00 87 1024.2
20260902234155 57 45 0.0 0.0 0.00 0.00 0.00 86 1024.3
20260902233155 57 45 0.0 0.0 0.00 0.00 0.00 86 1024.4
20260902232155 57 45 0.0 0.0 0.00 0.00 0.00 86 1024.5
20260902231154 57 45 0.0 0.0 0.00 0.00 0.00 86 1024.6
20260902230154 57 45 0.0 0.0 0.00 0.00 0.00 86 1024.6
20260902225154 58 45 0.0 0.0 0.00 0.00 0.00 86 1024.5
20260902224154 58 45 0.0 0.0 0.00 0.00 0.00 86 1024.6
20260902223153 58 45 0.0 0.0 0.00 0.00 0.00 86 1024.6
20260902221934 58 45 0.0 0.0 0.00 0.00 0.00 86 1024.5
20260902220348 58 45 0.0 0.0 0.00 0.00 0.00 86 1024.4
20260902215129 58 45 0.0 0.0 0.00 0.00 0.00 86 1024.3
20260902214019 58 45 0.0 0.0 0.00 0.00 0.00 86 1024.3
20260902213018 58 45 0.0 0.0 0.00 0.00 0.00 86 1024.3
20260902211907 58 45 0.0 0.0 0.00 0.00 0.00 86 1024.2
20260902210757 58 45 0.0 0.0 0.00 0.00 0.00 85 1024.2
20260902205540 58 45 0.0 0.0 0.00 0.00 0.00 85 1024.1
20260902204540 58 22 0.0 0.0 0.00 0.00 0.00 85 1024.2
20260902203320 58 22 0.0 0.0 0.00 0.00 0.00 85 1024.2
20260902201952 58 22 0.0 0.0 0.00 0.00 0.00 84 1024.2
20260902200626 58 22 0.0 0.0 0.00 0.00 0.00 84 1024.2
20260902195406 58 45 0.0 0.0 0.00 0.00 0.00 84 1024.1
20260902194405 58 22 0.0 0.0 0.00 0.00 0.00 83 1024.1
20260902193405 58 22 0.0 0.0 0.00 0.00 0.00 83 1024.2
20260902192255 58 45 0.0 0.0 0.00 0.00 0.00 83 1024.1
20260902191254 58 45 0.0 0.0 0.00 0.00 0.00 83 1024.1
20260902190128 58 22 0.0 0.0 0.00 0.00 0.00 82 1024.1
20260902185017 59 22 0.0 0.0 0.00 0.00 0.00 82 1024.0
20260902184017 59 22 0.0 0.0 0.00 0.00 0.00 81 1023.8
20260902182800 60 22 0.0 0.0 0.00 0.00 0.00 80 1023.8
20260902181800 60 22 0.0 0.0 0.00 0.00 0.00 79 1023.9
20260902180800 61 45 0.0 0.0 0.00 0.00 0.00 78 1023.8
20260902175759 62 45 0.0 0.0 0.00 0.00 0.00 77 1023.7
20260902174430 64 0 0.0 0.0 0.00 0.00 0.00 75 1023.6
20260902173319 64 45 0.0 0.0 0.00 0.00 0.00 74 1023.6
20260902172318 65 22 0.0 0.0 0.00 0.00 0.00 73 1023.7
20260902171208 66 22 0.0 0.0 0.00 0.00 0.00 71 1023.6
20260902165951 67 22 0.0 0.0 0.00 0.00 0.00 69 1023.6
20260902164951 67 22 0.0 0.0 0.00 0.00 0.00 68 1023.9
20260902163950 68 45 0.0 0.0 0.00 0.00 0.00 66 1023.6
20260902162622 68 45 0.0 0.0 0.00 0.00 0.00 65 1023.5
20260902161620 68 45 0.0 0.0 0.00 0.00 0.00 65 1023.5
20260902160619 68 45 0.0 0.0 0.00 0.00 0.00 64 1023.5
20260902155509 69 45 0.0 0.0 0.00 0.00 0.00 63 1023.5
20260902154507 69 45 0.0 0.0 0.00 0.00 0.00 62 1023.5
20260902153358 69 45 0.0 0.0 0.00 0.00 0.00 62 1023.5
20260902152357 69 45 0.0 0.0 0.00 0.00 0.00 63 1023.7
20260902151140 69 45 0.0 0.0 0.00 0.00 0.00 62 1023.7
20260902150140 70 22 0.0 0.0 0.00 0.00 0.00 62 1023.7
20260902145140 70 22 0.0 0.0 0.00 0.00 0.00 61 1023.7
20260902144139 70 22 0.0 0.0 0.00 0.00 0.00 60 1023.7
20260902142700 71 45 0.0 0.0 0.00 0.00 0.00 58 1023.7
20260902141334 73 45 0.0 0.0 0.00 0.00 0.00 56 1023.8
20260902140005 73 22 0.0 0.0 0.00 0.00 0.00 56 1023.8
20260902133725 74 22 0.0 0.0 0.00 0.00 0.00 55 1024.0
20260902132725 74 45 2.0 0.0 0.00 0.00 0.00 57 1024.1
20260902131356 74 45 0.0 0.0 0.00 0.00 0.00 56 1024.1
20260902125920 73 45 0.0 0.0 0.00 0.00 0.00 57 1024.3
20260902124700 72 22 0.0 0.0 0.00 0.00 0.00 58 1024.4
20260902123440 73 45 0.0 0.0 0.00 0.00 0.00 56 1024.5
20260902122438 73 45 0.0 0.0 0.00 0.00 0.00 56 1024.6
20260902121437 73 22 0.0 0.0 0.00 0.00 0.00 56 1024.7
20260902120435 73 22 0.0 0.0 0.00 0.00 0.00 57 1024.7
20260902115434 73 22 0.0 0.0 0.00 0.00 0.00 57 1024.7
20260902114432 73 45 4.0 0.0 0.00 0.00 0.00 58 1024.7
20260902112739 73 22 0.0 0.0 0.00 0.00 0.00 61 1024.9
20260902111738 72 22 0.0 0.0 0.00 0.00 0.00 61 1024.9
20260902110303 72 22 0.0 0.0 0.00 0.00 0.00 62 1025.0
20260902105306 72 22 0.0 0.0 0.00 0.00 0.00 62 1025.0
20260902104302 71 22 0.0 0.0 0.00 0.00 0.00 62 1025.0
20260902103302 71 22 0.0 0.0 0.00 0.00 0.00 65 1025.1
20260902101933 70 22 0.0 0.0 0.00 0.00 0.00 64 1025.3
20260902100932 70 22 0.0 0.0 0.00 0.00 0.00 64 1025.2
20260902095457 70 45 0.0 0.0 0.00 0.00 0.00 61 1025.2
20260902094457 70 22 0.0 0.0 0.00 0.00 0.00 62 1025.3
20260902093456 70 45 4.0 0.0 0.00 0.00 0.00 63 1025.3
20260902092456 70 22 0.0 0.0 0.00 0.00 0.00 63 1025.2
20260902085145 70 45 0.0 0.0 0.00 0.00 0.00 65 1025.1
20260902083557 68 22 2.0 0.0 0.00 0.00 0.00 66 1025.1
20260902082340 68 45 0.0 0.0 0.00 0.00 0.00 68 1025.1
20260902081340 66 45 0.0 0.0 0.00 0.00 0.00 71 1025.1
20260902080119 66 22 0.0 0.0 0.00 0.00 0.00 75 1025.1
20260902074651 66 45 0.0 0.0 0.00 0.00 0.00 77 1025.1
20260902073650 65 45 0.0 0.0 0.00 0.00 0.00 80 1025.2
20260902072648 65 45 0.0 0.0 0.00 0.00 0.00 87 1025.1
20260902071647 64 22 0.0 0.0 0.00 0.00 0.00 89 1025.1
20260902070646 51 45 0.0 0.0 0.00 0.00 0.00 90 1025.0
20260902065645 51 45 0.0 0.0 0.00 0.00 0.00 91 1024.9